Tracking 20628 objects as of 7-Apr-2020
HD Live streaming from Space Station
objects crossing your sky now

MINOTAUR 4 R/B

Track MINOTAUR 4 R/B now!
10-day predictions


NORAD ID: 37169
Int'l Code: 2010-048B
Perigee: 483.8 km
Apogee: 493.1 km
Inclination: 97.9 °
Period: 94.2 minutes
Semi major axis: 6859 km
RCS: Unknown
Launch date: September 26, 2010
Source: United States (US)
Launch site: AIR FORCE WESTERN TEST RANGE (AFWTR)

Note: This is a ROCKET BODY
aabbcc
Your satellite tracking list
Your tracking list is empty




NASA's NSSDC Master Catalog

Two Line Element Set (TLE):
1 37169U 10048B   20098.39103152 +.00000677 +00000-0 +27685-4 0  9994
2 37169 097.9108 203.0759 0006769 136.9472 223.2297 15.28157439528993
Source of the keplerian elements: McCants